Location: Newton_Old_St_Pauls
(35.6750°N, 81.2580°W)
Time: 22:21:26
(UTC-04:00)

Daily predictions for brighter satellites

Satellite Brightness Start Highest point End
(mag) Time Altitude Azimuth Time Altitude Azimuth Time Altitude Azimuth
Cosmos 468 Rocket 4.5 19:32:11 10° SSW 19:37:21 70° WNW 19:42:37 10° NNE
Cosmos 2181 Rocket 4.2 19:31:23 10° N 19:37:23 50° E 19:43:15 10° SSE
Cosmos 1758 Rocket 3.9 19:34:04 10° N 19:38:25 48° E 19:42:45 10° SSE
Cosmos 1726 Rocket 3.6 19:35:34 10° S 19:39:52 60° E 19:44:09 10° NNE
Cosmos 389 Rocket 2.5 19:37:41 10° S 19:41:11 84° W 19:44:40 10° N
FREGAT/IRIS 4.1 19:39:21 10° ESE 19:41:34 19° ENE 19:43:48 10° NNE
Cosmos 1340 Rocket 2.9 19:38:22 10° N 19:42:23 56° E 19:46:23 10° SSE
Cosmos 1937 Rocket 3.6 19:38:14 10° N 19:43:28 57° ENE 19:48:36 10° SSE
NOSS 3-1 (C) 4.5 19:38:21 10° NNW 19:45:42 46° NE 19:53:43 10° ESE
Cosmos 2084 3.7 19:41:39 10° SW 19:45:47 68° WNW 19:49:42 10° NNE
Cosmos 2074 Rocket 4.5 19:42:00 10° SSE 19:47:36 37° E 19:53:13 10° NNE
Cosmos 540 Rocket 4.2 19:48:50 10° SSE 19:53:14 30° E 19:57:39 10° NE
Cosmos 2298 Rocket 4.0 19:49:16 10° NNW 19:54:36 75° ENE 19:59:55 10° SSE
Cosmos 1709 Rocket 4.4 19:48:41 10° S 19:55:01 75° W 20:01:25 10° N
Cosmos 1763 Rocket 3.5 19:50:21 10° SSW 19:55:26 85° WNW 20:00:38 10° NNE
Cosmos 1943 Rocket 2.4 19:49:52 10° NNW 19:55:28 78° WSW 20:01:04 10° SSE
CZ-4 R/B 4.4 19:54:57 10° SSW 19:58:12 22° W 20:01:30 10° NW
Meteor 1-24 Rocket 4.3 19:56:31 10° N 20:01:59 37° ENE 20:07:17 10° SE
Lacrosse 5 4.3 20:00:23 10° WNW 20:04:17 23° WSW 20:08:11 10° S
Cosmos 2228 3.0 20:01:11 10° S 20:05:32 79° E 20:09:52 10° N
SJ-6B 3.2 20:07:57 10° SE 20:11:44 41° ENE 20:15:27 10° N
Resurs 01 Rocket 2.9 20:14:19 18° E 20:16:04 22° ENE 20:19:28 10° NNE
Cosmos 1812 Rocket 4.2 20:15:29 10° SSE 20:19:26 32° E 20:23:25 10° NNE
Cosmos 1356 Rocket 3.5 20:17:12 10° N 20:21:28 62° E 20:25:43 10° SSE
GP-B 4.1 20:18:24 10° NNE 20:22:04 25° E 20:23:35 21° ESE
H-2A R/B 2.6 20:20:00 10° SSE 20:23:40 68° ENE 20:27:24 10° N
Cosmos 2184 Rocket 4.0 20:18:57 10° S 20:25:13 76° E 20:31:35 10° N
Cosmos 2058 Rocket 3.9 20:21:18 10° SSW 20:25:33 53° W 20:29:51 10° N
Thor Agena Rocket 4.1 20:20:47 10° N 20:25:57 63° WNW 20:31:03 10° SSW
Spot 2 Rocket 4.4 20:24:52 21° ESE 20:26:50 28° ENE 20:31:04 10° NNE
FENGYUN 3A 4.1 20:22:50 10° S 20:28:07 63° W 20:33:27 10° NNW
Cosmos 1656 Rocket 3.6 20:24:09 10° NNW 20:29:49 86° ENE 20:35:21 10° SSE
Cosmos 836 Rocket 4.4 20:25:40 10° S 20:30:55 78° ESE 20:36:13 10° NNE
Cosmos 292 Rocket 4.3 20:32:44 10° SSE 20:37:05 35° E 20:41:28 10° NE
Meteor 1-22 Rocket 4.3 20:34:38 10° S 20:40:24 81° W 20:45:57 10° N
Milstar 3 Cent rocket 2.9 20:36:08 10° SW 20:40:48 29° S 20:42:11 25° SE
COSMOS 2406 3.5 20:37:32 10° SSW 20:43:12 71° WNW 20:48:56 10° NNE
Cosmos 1766 3.6 20:40:44 10° SSW 20:44:38 65° W 20:48:32 10° N
BREEZE-M (TANK) 3.5 20:33:55 10° NW 20:46:15 89° SW 20:48:01 35° SE
OAO 3 Copernicus 4.2 20:41:28 10° W 20:46:32 85° S 20:48:27 39° E
ISS -4.0 20:43:24 10° SW 20:46:40 85° SE 20:47:03 67° ENE
MOS 1-B Rocket 4.2 20:43:09 23° SE 20:46:44 46° ENE 20:52:09 10° N
Cosmos 1544 3.3 20:44:17 10° SSW 20:47:52 69° W 20:51:28 10° N
Cosmos 1125 Rocket 3.4 20:49:37 10° NNW 20:54:54 67° ENE 20:57:04 35° SE
BREEZE-M DEB (TANK) 4.0 20:42:58 10° WSW 20:56:32 66° NNW 20:59:22 24° NE
Cosmos 1356 4.4 20:53:55 10° N 20:56:11 35° NNE 20:56:11 35° NNE
Cosmos 1758 3.4 20:59:37 56° NE 20:59:37 56° NE 21:02:59 10° NNE
Envisat 3.1 20:57:59 45° ESE 20:59:03 53° ENE 21:03:59 10° N
Cosmos 372 Rocket 3.9 20:54:07 10° N 20:59:20 64° ENE 21:00:50 44° SE
In-Cosmos 22 4.3 20:53:49 10° N 20:59:33 81° W 21:05:19 10° S
Cosmos 962 Rocket 4.5 21:00:42 10° S 21:06:56 63° E 21:13:14 10° NNE
ATLAS CENTAUR R/B 3.1 20:57:02 10° NW 21:07:59 67° WSW 21:09:50 37° S
GEOS 3 Rocket 4.0 21:11:55 46° SSE 21:11:55 46° SSE 21:16:14 10° SSW
Cosmos 1805 4.4 21:14:21 10° SSW 21:18:03 42° W 21:21:47 10° N
ATLAS 2AS CENTAUR R/B 3.9 21:11:57 10° NNW 21:18:44 29° NE 21:19:38 29° NE
CZ-2D R/B 4.4 21:23:20 36° SW 21:23:59 40° W 21:27:35 10° NNW
SL-27 R/B 4.2 21:21:42 10° SW 21:30:13 - N 21:23:47 28° WSW
NOSS 3-1 (A) 4.5 21:20:30 10° NW 21:28:15 63° WSW 21:33:24 26° S
Resurs 1-3 4.0 21:28:08 57° WSW 21:28:24 58° W 21:32:44 10° NNW
Cosmos 2154 Rocket 4.5 21:24:25 10° SSW 21:30:31 59° W 21:36:43 10° N
Cosmos 2341 Rocket 4.2 21:36:31 10° SSW 21:42:40 68° W 21:48:51 10° N
Resurs 01 Rocket 3.4 21:51:54 28° WSW 21:52:21 28° W 21:56:11 10° NW
FALCON 9 R/B 2.7 21:52:19 10° W 21:55:16 56° WSW 21:55:16 56° WSW
Cosmos 1697 Rocket 4.4 21:51:50 10° N 21:54:09 22° NNE 21:54:09 22° NNE
Cosmos 1980 Rocket 4.4 21:54:00 10° N 21:55:07 14° NNE 21:55:07 14° NNE
ATLAS 2AS CENTAUR R/B 4.1 23:02:33 10° NW 23:07:04 37° NW 23:07:04 37° NW
